When you browse on this site, cookies collect data to enhance your experience and personalize the content and advertising you see.
Visit our Privacy Policy to learn more. By continuing to use the site, you agree to this use of cookies and data.
  • In France
  • List of Countries
  • For 7 days
  • Water Temperature
  • Satellite Maps
  • Weather Map
  • Weather Widgets
  • user-avatar
    Login

    Hourly Weather Tibissa

    Today, 23 January, Wednesday

    Time Temperature Precipitation Wind Pressure Humidity
    00:00 +3°C° 0 mm 1 mps 677 mmHg 79%
    01:00 +2°C° 0 mm 2 mps 677 mmHg 74%
    02:00 +2°C° 0 mm 2 mps 676 mmHg 74%
    03:00 +2°C° 0 mm 2 mps 676 mmHg 74%
    04:00 +1°C° 0 mm 2 mps 675 mmHg 73%
    05:00 +1°C° 0 mm 2 mps 675 mmHg 75%
    06:00 0°C° 0 mm 3 mps 675 mmHg 76%
    07:00 0°C° 0 mm 3 mps 674 mmHg 81%
    08:00 0°C° 0 mm 4 mps 675 mmHg 73%
    09:00 +3°C° 0 mm 4 mps 675 mmHg 66%
    10:00 +3°C° 0 mm 5 mps 675 mmHg 59%
    11:00 +4°C° 0 mm 6 mps 674 mmHg 56%
    12:00 +5°C° 0 mm 7 mps 674 mmHg 54%
    13:00 +6°C° 0 mm 8 mps 674 mmHg 51%
    14:00 +6°C° 0.1 mm 9 mps 674 mmHg 51%
    15:00 +6°C° 0.1 mm 9 mps 673 mmHg 51%
    16:00 +6°C° 0.1 mm 10 mps 673 mmHg 51%
    17:00 +5°C° 0.2 mm 9 mps 672 mmHg 56%
    18:00 +4°C° 0.2 mm 7 mps 671 mmHg 61%
    19:00 +4°C° 0.2 mm 6 mps 671 mmHg 66%
    20:00 +4°C° 0.2 mm 7 mps 670 mmHg 69%
    21:00 +3°C° 0.2 mm 9 mps 670 mmHg 73%
    22:00 +3°C° 0.2 mm 10 mps 669 mmHg 76%
    23:00 +3°C° 0 mm 11 mps 669 mmHg 76%

    Tomorrow, 24 January, Thursday

    Time Temperature Precipitation Wind Pressure Humidity
    00:00 +3°C° 0 mm 11 mps 668 mmHg 76%
    01:00 +3°C° 0 mm 12 mps 668 mmHg 75%
    02:00 +2°C° 0.6 mm 12 mps 668 mmHg 78%
    03:00 +2°C° 0.6 mm 12 mps 667 mmHg 80%
    04:00 0°C° 0.6 mm 12 mps 667 mmHg 82%
    05:00 -1°C° 1 mm 11 mps 667 mmHg 84%
    06:00 -2°C° 1 mm 11 mps 667 mmHg 86%
    07:00 -3°C° 1 mm 10 mps 667 mmHg 89%
    08:00 -3°C° 0.3 mm 11 mps 667 mmHg 86%
    09:00 -3°C° 0.3 mm 12 mps 667 mmHg 83%
    10:00 -4°C° 0.3 mm 13 mps 668 mmHg 80%
    11:00 -4°C° 0.1 mm 14 mps 668 mmHg 76%
    12:00 -4°C° 0.1 mm 16 mps 668 mmHg 72%
    13:00 -3°C° 0.1 mm 17 mps 668 mmHg 68%
    14:00 -3°C° 0 mm 17 mps 668 mmHg 70%
    15:00 -3°C° 0 mm 18 mps 668 mmHg 73%
    16:00 -3°C° 0 mm 19 mps 668 mmHg 75%
    17:00 -3°C° 0.1 mm 18 mps 668 mmHg 78%
    18:00 -3°C° 0.1 mm 17 mps 668 mmHg 81%
    19:00 -3°C° 0.1 mm 16 mps 669 mmHg 83%
    20:00 -3°C° 0.4 mm 16 mps 669 mmHg 84%
    21:00 -3°C° 0.4 mm 17 mps 670 mmHg 85%
    22:00 -3°C° 0.4 mm 18 mps 671 mmHg 86%
    23:00 -3°C° 1.1 mm 17 mps 671 mmHg 86%

    Day after tomorrow, 25 January, Friday

    Time Temperature Precipitation Wind Pressure Humidity
    00:00 -3°C° 1.1 mm 17 mps 672 mmHg 87%
    01:00 -3°C° 1.1 mm 17 mps 672 mmHg 88%
    02:00 -3°C° 0.1 mm 16 mps 672 mmHg 89%
    03:00 -3°C° 0.1 mm 15 mps 673 mmHg 89%
    04:00 -2°C° 0.1 mm 14 mps 673 mmHg 89%
    05:00 -2°C° 0.2 mm 13 mps 674 mmHg 90%
    06:00 -2°C° 0.2 mm 13 mps 674 mmHg 90%
    07:00 -2°C° 0.2 mm 12 mps 674 mmHg 90%
    08:00 -2°C° 0.1 mm 12 mps 675 mmHg 89%
    09:00 -2°C° 0.1 mm 13 mps 676 mmHg 87%
    10:00 -2°C° 0.1 mm 13 mps 677 mmHg 85%
    11:00 -2°C° 0.1 mm 13 mps 677 mmHg 81%
    12:00 -2°C° 0.1 mm 13 mps 677 mmHg 77%
    13:00 -1°C° 0.1 mm 13 mps 677 mmHg 72%
    14:00 -1°C° 0.1 mm 13 mps 677 mmHg 73%
    15:00 -1°C° 0.1 mm 13 mps 676 mmHg 74%
    16:00 -1°C° 0.1 mm 13 mps 676 mmHg 75%
    17:00 -2°C° 0.4 mm 13 mps 676 mmHg 79%
    18:00 -2°C° 0.4 mm 12 mps 677 mmHg 83%
    19:00 -2°C° 0.4 mm 12 mps 677 mmHg 86%
    20:00 -2°C° 0.6 mm 11 mps 677 mmHg 87%
    21:00 -2°C° 0.6 mm 10 mps 677 mmHg 88%
    22:00 -1°C° 0.6 mm 9 mps 677 mmHg 90%
    23:00 -1°C° 0.9 mm 9 mps 677 mmHg 90%

    26 January, Saturday

    Time Temperature Precipitation Wind Pressure Humidity
    00:00 -1°C° 0.9 mm 9 mps 677 mmHg 91%
    01:00 -1°C° 0.9 mm 9 mps 677 mmHg 91%
    02:00 -2°C° 0.3 mm 10 mps 677 mmHg 91%
    03:00 -2°C° 0.3 mm 10 mps 677 mmHg 91%
    04:00 -3°C° 0.3 mm 10 mps 677 mmHg 90%
    05:00 -3°C° 0.1 mm 10 mps 677 mmHg 91%
    06:00 -3°C° 0.1 mm 9 mps 678 mmHg 92%
    07:00 -3°C° 0.1 mm 9 mps 678 mmHg 94%
    08:00 -3°C° 0.3 mm 9 mps 679 mmHg 94%
    09:00 -3°C° 0.3 mm 9 mps 679 mmHg 94%
    10:00 -1°C° 0.3 mm 9 mps 680 mmHg 94%
    11:00 -1°C° 0.1 mm 9 mps 680 mmHg 90%
    12:00 0°C° 0.1 mm 9 mps 681 mmHg 87%
    13:00 0°C° 0.1 mm 9 mps 681 mmHg 84%
    14:00 0°C° 0 mm 10 mps 681 mmHg 84%
    15:00 0°C° 0 mm 10 mps 681 mmHg 83%
    16:00 0°C° 0 mm 10 mps 681 mmHg 83%
    17:00 0°C° 0 mm 10 mps 681 mmHg 85%
    18:00 -1°C° 0 mm 9 mps 681 mmHg 88%
    19:00 -1°C° 0 mm 8 mps 682 mmHg 91%
    20:00 -2°C° 0 mm 8 mps 682 mmHg 91%
    21:00 -2°C° 0 mm 8 mps 682 mmHg 91%
    22:00 -2°C° 0 mm 7 mps 683 mmHg 91%
    23:00 -2°C° 0 mm 7 mps 683 mmHg 91%

    27 January, Sunday

    Time Temperature Precipitation Wind Pressure Humidity
    00:00 -1°C° 0 mm 6 mps 683 mmHg 91%
    01:00 -1°C° 0 mm 6 mps 682 mmHg 90%
    02:00 0°C° 0 mm 5 mps 682 mmHg 91%
    03:00 -1°C° 0 mm 4 mps 682 mmHg 91%
    04:00 0°C° 0 mm 3 mps 681 mmHg 91%
    05:00 0°C° 0 mm 3 mps 681 mmHg 89%
    06:00 0°C° 0 mm 3 mps 681 mmHg 86%
    07:00 0°C° 0 mm 3 mps 681 mmHg 84%
    08:00 +1°C° 0 mm 3 mps 681 mmHg 79%
    09:00 +1°C° 0 mm 4 mps 681 mmHg 75%
    10:00 +3°C° 0 mm 4 mps 681 mmHg 70%
    11:00 +4°C° 0 mm 4 mps 681 mmHg 69%
    12:00 +5°C° 0 mm 5 mps 680 mmHg 67%
    13:00 +6°C° 0 mm 5 mps 680 mmHg 65%
    14:00 +6°C° 0 mm 5 mps 679 mmHg 64%
    15:00 +7°C° 0 mm 5 mps 679 mmHg 63%
    16:00 +7°C° 0 mm 5 mps 678 mmHg 61%
    17:00 +6°C° 0 mm 4 mps 678 mmHg 65%
    18:00 +5°C° 0 mm 4 mps 678 mmHg 68%
    19:00 +3°C° 0 mm 3 mps 677 mmHg 72%
    20:00 +3°C° 0 mm 3 mps 677 mmHg 72%
    21:00 +3°C° 0 mm 3 mps 677 mmHg 73%
    22:00 +4°C° 0 mm 2 mps 677 mmHg 73%
    23:00 +4°C° 0.1 mm 2 mps 677 mmHg 76%

    28 January, Monday

    Time Temperature Precipitation Wind Pressure Humidity
    00:00 +4°C° 0.1 mm 2 mps 677 mmHg 78%
    01:00 +5°C° 0.1 mm 1 mps 676 mmHg 80%
    02:00 +5°C° 1.4 mm 1 mps 676 mmHg 84%
    03:00 +4°C° 1.4 mm 2 mps 675 mmHg 88%
    04:00 +4°C° 1.4 mm 2 mps 675 mmHg 92%
    05:00 +2°C° 0.2 mm 3 mps 674 mmHg 92%
    06:00 +1°C° 0.2 mm 4 mps 674 mmHg 91%
    07:00 -1°C° 0.2 mm 6 mps 674 mmHg 91%
    08:00 -1°C° 0.1 mm 6 mps 675 mmHg 90%
    09:00 -1°C° 0.1 mm 6 mps 675 mmHg 90%
    10:00 -1°C° 0.1 mm 7 mps 676 mmHg 89%
    11:00 -1°C° 0 mm 6 mps 676 mmHg 85%
    12:00 +1°C° 0 mm 6 mps 676 mmHg 80%
    13:00 +1°C° 0 mm 5 mps 675 mmHg 76%
    14:00 +1°C° 0.1 mm 6 mps 675 mmHg 74%
    15:00 +1°C° 0.1 mm 6 mps 675 mmHg 71%
    16:00 +1°C° 0.1 mm 6 mps 675 mmHg 69%
    17:00 +1°C° 0.1 mm 6 mps 676 mmHg 72%
    18:00 -1°C° 0.1 mm 6 mps 676 mmHg 76%
    19:00 -2°C° 0.1 mm 6 mps 676 mmHg 80%
    20:00 -2°C° 0 mm 5 mps 677 mmHg 81%
    21:00 -2°C° 0 mm 4 mps 677 mmHg 83%
    22:00 -2°C° 0 mm 3 mps 677 mmHg 84%
    23:00 -2°C° 0 mm 3 mps 677 mmHg 82%
    Show more